Regional Weather Roundup
Issued by NWS

Home | Current Version | Previous Version | Graphics & Text | Print | Product List | Glossary On
Versions: 1 2 3 4 5 6 7 8 9 10 11 12 13 14 15 16 17 18 19 20 21 22 23 24 25 26 27 28 29 30 31 32 33 34 35 36 37 38 39 40 41 42 43 44 45 46 47 48 49 50
000
ASUS43 KMKX 100900
RWRWI

WISCONSIN REGIONAL WEATHER ROUNDUP
NATIONAL WEATHER SERVICE MILWAUKEE/SULLIVAN WI
300 AM CST WED FEB 10 2016

NOTE: "FAIR" INDICATES FEW OR NO CLOUDS BELOW 12,000 FEET WITH NO
SIGNIFICANT WEATHER AND/OR OBSTRUCTIONS TO VISIBILITY.

WIZ001-002-006>008-014>016-023>028-101000-
NORTHWEST WISCONSIN

CITY           SKY/WX    TMP DP  RH WIND       PRES   REMARKS
SUPERIOR ARPT  CLOUDY    -3  -8  79 N5        30.14F WCI -14
ASHLAND        CLOUDY     5  -1  76 N6        30.08R WCI  -6
HAYWARD        CLOUDY     3  -4  72 VRB6      30.04S WCI  -8
SIREN          PTCLDY    -9 -14  81 CALM      30.11S
CUMBERLAND     MOCLDY    -2  -8  78 N7        30.06F WCI -16
RICE LAKE      CLOUDY     1  -5  74 NW6       30.08S WCI -10
CHETEK         PTCLDY    -2  -7  82 NW3       30.07S
LADYSMITH      CLOUDY     1  -4  78 NW7       30.04R WCI -11
EAU CLAIRE     NOT AVBL
MENOMONIE      CLOUDY     2  -8  63 NW5       30.09F WCI  -8
NEW RICHMOND   PTCLDY    -1  -7  74 NW5       30.11R WCI -11
OSCEOLA        CLOUDY     2  -5  72 N3        30.14S
$$

WIZ003>005-009-010-017-018-101000-
NORTH CENTRAL WISCONSIN

CITY           SKY/WX    TMP DP  RH WIND       PRES   REMARKS
MANITOWISH WTR FLURRIES   4   0  81 N5        29.92S WCI  -5
ARBOR VITAE    CLOUDY     5   0  80 N5        29.91F WCI  -4
WOODRUFF       CLOUDY     5   0  80 N5        29.91F WCI  -4
RHINELANDER    CLOUDY     5  -4  66 N8        29.91S WCI  -8
EAGLE RIVER    CLOUDY     4  -4  70 N8        29.90S WCI  -9
LAND O LAKES   CLOUDY     5   0  79 N7        29.91S WCI  -7
PHILLIPS       CLOUDY     2  -3  78 NW5       29.96S WCI  -7
TOMAHAWK       CLOUDY     5  -1  78 NW5       29.94S WCI  -4
MEDFORD        CLOUDY     5  -2  72 NW10      29.94F WCI -10
MERRILL        CLOUDY     7   0  74 N7        29.95F WCI  -5
$$

WIZ029-030-035-036-043>047-101000-
CENTRAL WISCONSIN

CITY           SKY/WX    TMP DP  RH WIND       PRES   REMARKS
WAUSAU         CLOUDY     9  -1  64 NW9       29.94F WCI  -4
MOSINEE        CLOUDY     9   1  72 NW8       29.96S WCI  -4
MARSHFIELD     PTCLDY     4  -6  63 NW12      29.96F WCI -12
STEVENS POINT  CLOUDY     7  -1  67 NW6       29.97S WCI  -3
WAUPACA        CLOUDY    13   3  64 NW8       29.98R WCI   2
WAUTOMA        NOT AVBL
WISC RAPIDS    CLOUDY     8  -3  61 NW10      29.99F WCI  -6
CAMP DOUGLAS   NOT AVBL
$$

WIZ011>013-019>022-031-037>040-048>050-101000-
NORTHEAST WISCONSIN

CITY           SKY/WX    TMP DP  RH WIND       PRES   REMARKS
ANTIGO         CLOUDY     6  -4  65 N10       29.91S WCI  -9
SHAWANO        CLOUDY    12   0  59 N13       29.97R WCI  -3
OCONTO         CLEAR      8  -4  58 NW6       29.95R WCI  -2
STURGEON BAY   CLEAR      9  -4  56 NW16G24   29.92S WCI  -9
GREEN BAY      CLEAR      9  -4  55 N16       29.95R WCI  -8
MANITOWOC      NOT AVBL
APPLETON       CLEAR     10  -4  52 NW15G23   29.93R WCI  -6
CLINTONVILLE   CLOUDY    12  -2  52 N8        29.96S WCI   1
OSHKOSH        MOCLDY    10  -1  61 NW12      29.95R WCI  -5
$$

WIZ032>034-041-042-053>061-101000-
SOUTHWEST WISCONSIN

CITY           SKY/WX    TMP DP  RH WIND       PRES   REMARKS
LA CROSSE      PTCLDY     4  -7  60 NW10      30.09S WCI -11
SPARTA         PTCLDY     4  -4  69 W5        30.07R WCI  -6
VIROQUA        PTCLDY     2  -6  69 NW8       30.01S WCI -12
BOSCOBEL       CLEAR     -2  -6  83 CALM      30.08F
PRAIRIE DU CHI PTCLDY     5  -5  63 W6        30.09S WCI  -6
PLATTEVILLE    CLEAR      4  -3  72 NW8       30.03S WCI  -9
$$

WIZ056-057-062-063-064-067-068-101000-
SOUTH CENTRAL WISCONSIN

CITY           SKY/WX    TMP DP  RH WIND       PRES   REMARKS
REEDSBURG      CLOUDY     7  -2  68 W8        30.02R WCI  -6
BARABOO/DELLS  CLOUDY     8  -1  68 NW6       30.00R WCI  -2
LONE ROCK      NOT AVBL
MINERAL POINT  CLEAR      7  -2  66 NW8       30.00S WCI  -6
MADISON        CLOUDY    10   0  63 NW10      30.00R WCI  -4
MIDDLETON      CLOUDY    10   2  70 NW10      30.01R WCI  -4
WATERTOWN      CLEAR     10   1  67 NW9       29.96R WCI  -4
MONROE         CLOUDY     9   1  72 NW12      29.99R WCI  -6
JANESVILLE     CLOUDY    14   3  62 NW12G18   29.99R WCI   0
$$

WIZ051-052-058>065-066-070>072-101000-
SOUTHEAST WISCONSIN

CITY           SKY/WX    TMP DP  RH WIND       PRES   REMARKS
MILWAUKEE      PTCLDY    11   0  61 NW10      29.94S WCI  -3
WAUKESHA       CLEAR      9   0  66 NW12      29.94S WCI  -6
MILWAUKEE/TIMM CLEAR     10   0  61 NW12      29.95R WCI  -4
RACINE         PTCLDY    11   0  61 NW8       29.96S WCI  -1
BURLINGTON     CLEAR      7  -2  68 NW10G16   29.96R WCI  -8
KENOSHA        PTCLDY    11   1  64 NW10      29.95R WCI  -3
FOND DU LAC    MOCLDY    10   0  63 NW10      29.95S WCI  -4
SHEBOYGAN      CLEAR      9  -2  61 NW15      29.93R WCI  -8
WEST BEND      CLEAR     10   1  67 CALM      29.92S
JUNEAU         MOCLDY     8   0  69 NW7       29.96R WCI  -4
$$

LSZ147-162-101000-
LAKE SUPERIOR

STATION/POSITION TIME  TEMP    WIND        PRES    WAVE
                       AIR SEA DIR/SP/G            HT/PER
                 (UTC) (F)     (DEG/KT/KT) (MB)    (FT/S)
DEVILS ISLAND    0800    6      20/ 15/ 17 1020.5F
SAXON HARBOR     0840    9                 1017.3F
$$

LMZ867-665-643>646-101000-
LAKE MICHIGAN

STATION/POSITION TIME  TEMP    WIND        PRES    WAVE
                       AIR SEA DIR/SP/G            HT/PER
                 (UTC) (F)     (DEG/KT/KT) (MB)    (FT/S)
CHAMBERS ISLAND  0800   10     300/ 16/ 22 1012.9R
ALGOMA LAKESHORE 0711          320/ 14/ 20   N/A
KEWAUNEE LAKESHO 0800   10     320/ 11/ 21 1012.3R
SHEBOYGAN LAKESH 0800   11     320/ 16/ 18 1014.7S
PORT WASHINGTON  0800   12     300/  8/ 14 1014.6S
MILWAUKEE LAKESH 0810   13     310/  9/ 11   N/A
KENOSHA   LAKESH 0800   13     310/ 11/ 16 1014.2R
$$

TC  - TEMPERATURE IN CELSIUS
VSB - VISIBILITY IN STATUTE MILES
WCI - WIND CHILL INDEX
HX  - HEAT INDEX




USA.gov is the U.S. government's official web portal to all federal, state and local government web resources and services.